Regional Weather Roundup
Issued by NWS Charleston, WV

Home | Current Version | Previous Version | Text Only | Print | Product List | Glossary On
Versions: 1 2 3 4 5 6 7 8 9 10 11 12 13 14 15 16 17 18 19 20 21 22 23 24 25 26 27 28
000
ASUS41 KRLX 161610
RWRRLX
West Virginia Regional Weather Roundup
National Weather Service Charleston WV
1200 PM EDT WED APR 16 2014

Note: "fair" indicates few or no clouds below 12,000 feet with no
significant weather and/or obstructions to visibility.

WVZ003-161700-
Northern Panhandle of West Virginia

CITY           SKY/WX    TMP DP  RH WIND       PRES   REMARKS
WHEELING       MOSUNNY   34  17  50 NE9       30.45S
$$

WVZ009-161700-
Northwest West Virginia

CITY           SKY/WX    TMP DP  RH WIND       PRES   REMARKS
PARKERSBURG    PTSUNNY   37  21  52 E13       30.49R
$$

WVZ006-161700-
Western West Virginia

CITY           SKY/WX    TMP DP  RH WIND       PRES   REMARKS
HUNTINGTON     SUNNY     39  18  42 VRB6      30.42F
$$

WVZ015-161700-
West Central West Virginia

CITY           SKY/WX    TMP DP  RH WIND       PRES   REMARKS
CHARLESTON     MOSUNNY   40  20  44 N7        30.43S
$$

WVZ031-161700-
North Central West Virginia

CITY           SKY/WX    TMP DP  RH WIND       PRES   REMARKS
CLARKSBURG     MOSUNNY   35  17  47 N5        30.45R
MORGANTOWN     MOSUNNY   36  16  44 NE8       30.47R
$$

WVZ035-042-045-161700-
South Central West Virginia

CITY           SKY/WX    TMP DP  RH WIND       PRES   REMARKS
BECKLEY        SUNNY     35  17  47 NE6       30.35S
BLUEFIELD      SUNNY     38  14  37 VRB5      30.33S
LEWISBURG      SUNNY     35  16  45 CALM      30.36S
$$

WVZ047-161700-
Northern Mountains of West Virginia

CITY           SKY/WX    TMP DP  RH WIND       PRES   REMARKS
ELKINS         MOSUNNY   34  19  54 VRB5      30.41R
$$

WVZ052-161700-
Eastern Panhandle of West Virginia

CITY           SKY/WX    TMP DP  RH WIND       PRES   REMARKS
MARTINSBURG    SUNNY     39  11  31 N8        30.47R
PETERSBURG     SUNNY     42  21  43 CALM      30.46R
$$



USA.gov is the U.S. government's official web portal to all federal, state and local government web resources and services.